Location: Sorocaba
(23.4830°S, 47.4500°W)
Time: 13:14:05
(UTC-03:00)

N. Korean satellite - Visible Passes

Search period start: 19 May 2022 00:00
Search period end: 29 May 2022 00:00
Orbit: 439 x 478 km, 97.3° (Epoch: 19 May)

Date Brightness Start Highest point End Pass type
(mag) Time Alt. Az. Time Alt. Az. Time Alt. Az.
19 May 9.2 04:30:21 10° NNE 04:31:02 15° NE 04:31:02 15° NE visible
20 May 8.8 05:31:51 10° NW 05:32:08 11° NW 05:32:08 11° NW visible
21 May 8.5 04:58:21 10° N 04:59:22 18° N 04:59:22 18° N visible
21 May 9.5 18:04:19 10° SW 18:06:10 14° WSW 18:08:01 10° WNW visible
22 May 9.5 04:26:11 10° NE 04:26:34 12° NE 04:26:34 12° NE visible
23 May 8.8 05:27:10 10° NW 05:27:32 12° NW 05:27:32 12° NW visible
24 May 8.7 04:53:47 10° N 04:54:40 17° N 04:54:40 17° N visible
24 May 9.4 17:59:22 10° SSW 18:01:36 16° WSW 18:03:50 10° WNW visible
25 May 9.7 04:21:41 10° NE 04:21:44 10° NE 04:21:44 10° NE visible
26 May 8.8 05:22:08 10° NNW 05:22:34 12° NNW 05:22:34 12° NNW visible
27 May 8.9 04:48:52 10° N 04:49:34 15° N 04:49:34 15° N visible
27 May 9.3 17:54:04 10° SSW 17:56:38 19° WSW 17:59:12 10° WNW visible
